Home > Weather > Leoben > Past weeks

Flag for Austria Weather for the Past 2 Weeks in Leoben, Styria, Austria

Now
32 °F

Overcast.


Feels Like: N/A
Forecast: 33 / 46 °F
Wind: N/A

Location: Graz-Thalerhof-Flughafen

Current Time: Feb 14, 2016 at 3:35:40 AM

Latest Report: Feb 14, 2016 at 2:00 AM


Visibility: 4 mi

Pressure: 29.35 "Hg (27.43 "Hg at 540m altitude)

Humidity: 96%

Dew point: 31 °F

Location of LeobenLocation

Historic Weather in Leoben — Graph

°F

Leoben Temperature Yesterday

Maximum temperature yesterday: 45 °F (at 4:00 PM)
Minimum temperature yesterday: 32 °F (at 7:00 AM)
Average temperature yesterday: 37 °F

High & Low Weather Summary for the Past Weeks

 TemperatureHumidityPressure
High58 °F (Feb 1, 4:00 PM)100% (Jan 30, 2:00 AM)30.45 "Hg (Jan 30, 2:00 AM)
Low24 °F (Feb 12, 5:00 AM)31% (Feb 4, 1:00 PM)29.26 "Hg (Feb 10, 4:00 AM)
Average40 °F78%29.91 "Hg
* Reported Jan 30 2:00 AM — Feb 14 2:00 AM, Leoben, Weather by CustomWeather, © 2016

Note: Actual official high and low records may vary slightly from our data, if they occured in-between our weather recording intervals... More about our weather records

Advertising

Leoben Weather History for the Previous 24 Hours

 ConditionsComfort  
Time TempWeatherWind HumidityBarometerVisibility
2:00 AM
Sun, Feb 14
32 °FOvercast.N/A96%29.35 "Hg4 mi
1:00 AM31 °FLight rain. Low clouds.N/A99%29.38 "Hg1 mi
10:00 PM
Sat, Feb 13
36 °FPassing clouds.N/A95%29.38 "Hg4 mi
9:00 PM36 °FPassing clouds.N/A92%29.38 "Hg8 mi
8:00 PM35 °FPassing clouds.5 mph91%29.38 "Hg9 mi
7:00 PM36 °FPassing clouds.3 mph87%29.38 "Hg17 mi
6:00 PM39 °FPassing clouds.N/A80%29.38 "Hg17 mi
5:00 PM43 °FScattered clouds.N/A70%29.38 "Hg28 mi
4:00 PM45 °FPassing clouds.N/A63%29.38 "Hg28 mi
3:00 PM45 °FPassing clouds.3 mph61%29.38 "Hg25 mi
2:00 PM45 °FPassing clouds.5 mph68%29.38 "Hg28 mi
1:00 PM42 °FPassing clouds.N/A78%29.38 "Hg15 mi
12:00 PM39 °FPassing clouds.N/A85%29.41 "Hg9 mi
11:00 AM36 °FScattered clouds.N/A89%29.41 "Hg3 mi
10:00 AM33 °FOvercast.N/A97%29.41 "Hg2 mi
9:00 AM33 °FOvercast.N/A98%29.41 "Hg1 mi
8:00 AM32 °FOvercast.N/A98%29.41 "Hg2 mi
7:00 AM32 °FOvercast.N/A98%29.38 "Hg2 mi
6:00 AM33 °FOvercast.N/A99%29.41 "Hg2 mi
5:00 AM32 °FLight snow. Low clouds.N/A99%29.41 "Hg1 mi
Weather by CustomWeather, © 2016

See weather overviewHow to use our weather pages